Regional Weather Roundup
Issued by NWS Green Bay, WI

Home | Current Version | Previous Version | Text Only | Print | Product List | Glossary On
Versions: 1 2 3 4 5 6 7 8 9 10 11 12 13 14 15 16 17 18 19 20 21 22 23 24 25 26 27 28 29 30 31 32 33 34 35 36 37 38 39 40 41 42 43 44 45 46 47 48 49 50
000
ASUS43 KGRB 202311
RWRGRB

NORTH-CENTRAL AND NORTHEAST WISCONSIN REGIONAL WEATHER ROUNDUP
NATIONAL WEATHER SERVICE GREEN BAY WI
600 PM CDT FRI OCT 20 2017

WIZ005-009-010>012-018-019-210000-
NORTH CENTRAL WISCONSIN

CITY           SKY/WX    TMP DP  RH WIND       PRES   REMARKS
IRONWOOD       PTCLDY    72  44  36 S13G18    29.80
MANITOWISH WTR CLOUDY    66  42  42 S5        29.86S
ARBOR VITAE    CLOUDY    69  47  44 S7        29.88S
EAGLE RIVER    CLOUDY    67  40  36 S7        29.89F
LAND O LAKES   PTCLDY    68  38  33 S6        29.90S
RHINELANDER    CLOUDY    69  44  40 S9        29.91F
PHILLIPS       PTCLDY    70  43  38 S10G18    29.85S
ANTIGO         CLOUDY    64  47  55 S10       29.94F
TOMAHAWK       CLOUDY    66  46  49 CALM      29.90S
MERRILL        CLOUDY    70  44  39 S7        29.91F
$$

WIZ013-073-210000-
NORTHEAST WISCONSIN

CITY           SKY/WX    TMP DP  RH WIND       PRES   REMARKS
IRON MOUNTAIN  PTCLDY    69  45  41 S8        29.91S
MARINETTE      CLOUDY    68  50  52 S6        29.95F
OCONTO         CLOUDY    68  49  50 S3        29.94F
$$

WIZ017-030-035>037-045-210000-
CENTRAL WISCONSIN

CITY           SKY/WX    TMP DP  RH WIND       PRES   REMARKS
MEDFORD        CLOUDY    66  43  43 S8        29.89F
WAUSAU         CLEAR     68  42  38 S8        29.90F
MOSINEE        MOCLDY    64  45  48 S9        29.93S
MARSHFIELD     CLOUDY    67  42  40 S13       29.90F
WISC RAPIDS    CLOUDY    69  45  41 S5        29.93F
STEVENS POINT  CLOUDY    68  42  38 S7        29.94S
WAUPACA        PTCLDY    69  44  40 SE3       29.95S
SHAWANO        CLOUDY    72  49  44 S3        29.94S
CLINTONVILLE   PTCLDY    68  45  42 S7        29.94S
WAUTOMA        CLOUDY    69  47  45 S7        29.95F
$$

WIZ038-039-048-051-210000-
FOX VALLEY

CITY           SKY/WX    TMP DP  RH WIND       PRES   REMARKS
NWS GREEN BAY  PTCLDY    70  50  49 S7        29.96S
APPLETON       MOCLDY    66  43  42 S7        29.96S
OSHKOSH        CLOUDY    64  48  56 S8        29.96S
FOND DU LAC    CLOUDY    68  45  43 S7        29.97F
$$

WIZ022-050-052-210000-
EAST CENTRAL WISCONSIN

CITY           SKY/WX    TMP DP  RH WIND       PRES   REMARKS
EPHRAIM        FAIR      58  52  79 S9        29.96S
WASHINGTON ISL MOCLDY    57  53  86 S10G17    29.96S
STURGEON BAY   CLOUDY    59  53  80 S12       29.97F
MANITOWOC      CLOUDY    60  53  77 S10       29.99F
SHEBOYGAN      CLOUDY    64  54  69 S6        29.99F
$$

LMZ563-521-522-541>543-210000-
LAKESHORE

STATION/POSITION TIME  TEMP    WIND        PRES    VSBY  WAVE
                       AIR SEA DIR/SP/G                  HT/PER
                 (UTC) (F)     (DEG/KT/KT) (MB)    (MI)  (FT/S)
SHEBOYGAN LKSHOR 2300   58     180/ 14/ 14 1015.7S
KEWAUNEE LKSHORE 2248                      1014.6F
NORTHPORT PIER   2240   59     160/  7/ 14 1014.6R
N MID LAKE BUOY  2250   60 58  190/ 19/ 23 1014.9F         5/ 6
MENOMINEE LKSHOR 2248                      1013.9F
$$



USA.gov is the U.S. government's official web portal to all federal, state and local government web resources and services.